THORAD AGENA D DEB, 44564

Orbit data source: Space-Track

THORAD AGENA D DEB, 44564 is space debris in SSO originally from a launch on Wed, 08 Apr 1970 UTC launched from the Air Force Western Test Range (AFWTR). Debris objects in space refer to the collection of defunct objects orbiting the Earth. Examples of debris include non-operational satellites, rocket bodies, and fragments generated from explosions, collisions, or faulty payload assembly.

Loading next visibility...
Identifier
44564, 1970-025TM
Orbit
SSO
Country
Flag of USUS
Related business
Manufacturer
Unknown
Mission
Spacecraft
Bus & Motor
Unknown
Mass
Unknown
Launch date (UTC)
1970-04-08 (56 years ago)
Launch vehicle
Unknown
Launch site
Air Force Western Test Range (AFWTR)
Object type
Payload
Rocket body
Debris
Shape & HBR
Unknown shape, 0.065 m
Radar Cross Section
Medium (>0.1 m² and <1 m²)

Expand to show TLE details & history
Last TLE update: 13 hours ago

TLE from 13 hours ago
0 THORAD AGENA D DEB
1 44564U 70025TM  26266.95745410  .00002527  00000-0  11583-2 0  9990
2 44564 100.0008 274.5953 0068330 246.2723 132.0468 14.21212038659317
Epoch: 2026-09-23T22:58Z
TLE epoch observation values (Epoch: 2026-09-23T22:58:44.034Z)
Latitude
18.59606°
Longitude
-76.27283°
Altitude
856.745 km
Speed
7.409 km/s
True Right ascension
18h 04m 50s
True Declination
18° 29' 38"
Sunlit
Object was in daylight at epoch
Visualization orbit readout
Latitude
Unknown
Longitude
Unknown
Altitude
Unknown
Speed
Unknown
Apparent Right ascension
Unknown
Apparent Declination
Unknown
Sunlit
N/A
Visualization observer readout
Local Sidereal Time
04:55:12
Azimuth
Unknown
Elevation
Unknown
Doppler factor
Unknown
Orbital elements
Apogee altitude
867.654 km
Perigee altitude
769.305 km
Semi-major axis
7,196.617 km
Eccentricity
0.00683
Inclination
100.0008°
RAAN
274.5953°
Arg. of periapsis
246.2723°
True anomaly
132.62494°
Mean anomaly
132.0468°
Eccentric anomaly
132.3362°
Mean motion
3.55509 °/min
Orbital period
101.26 mins
BSTAR
0.0011583

Documentation

Showing up to 5 results
|